Location: Marcé
(47.5801°N, 0.3280°W)
Time: 11:13:08
(UTC+01:00)

deb Explorer IX - Pass Details

Date: 04 December 2021
Orbit: 544 x 1082 km, 38.8° (Epoch: 17 January)

Event Time Altitude Azimuth Distance (km) Brightness Sun altitude
Rises 11:07:23 0° 221° (SW) 3,047 ? 16.3°
Reaches altitude 10° 11:10:36 10° 202° (SSW) 2,031 ? 16.5°
Maximum altitude 11:13:33 17° 162° (SSE) 1,554 ? 16.7°
Drops below altitude 10° 11:16:20 10° 122° (ESE) 1,888 ? 16.9°
Sets 11:19:10 0° 101° (E) 2,737 ? 17.1°
